Regional Weather Roundup
Issued by NWS Charleston, SC

Current Version | Previous Version | Graphics & Text | Print | Product List | Glossary On
Versions: 1 2 3 4 5 6 7 8 9 10 11 12 13 14 15 16 17 18 19 20 21 22 23 24 25 26 27 28 29 30 31 32 33 34 35 36 37 38 39 40 41 42 43 44 45 46 47 48 49 50
000 ASUS42 KCHS 201712 RWRCHS REGIONAL WEATHER ROUNDUP NATIONAL WEATHER SERVICE CHARLESTON SC 100 PM EDT FRI OCT 20 2017 NOTE: "FAIR" INDICATES FEW OR NO CLOUDS BELOW 12,000 FEET WITH NO SIGNIFICANT WEATHER AND/OR OBSTRUCTIONS TO VISIBILITY. NOT ALL STATIONS ARE QUALITY CONTROLLED. USE DATA WITH CAUTION... ESPECIALLY DEWPOINT OBSERVATIONS. SCZ027-030-031-034>040-042>050-201800- ...SOUTHEAST SOUTH CAROLINA... CITY SKY/WX TMP DP RH WIND PRES REMARKS N CHARLESTON SUNNY 78 60 53 N7 30.24F WATERFRONT PRK N/A 74 60 61 N5 30.10F JOHNS ISLAND FAIR 77 61 57 CALM 30.25F PINOPOLIS N/A 70 59 68 N5 30.20F MONCKS CORNER FAIR 73 52 46 NE6 30.26F SUMMERVILLE FAIR 75 57 53 N5 30.26F BEAUFORT MCAS SUNNY 78 61 55 NE9 30.25F BEAUFORT ARPT FAIR 73 61 64 NE8 30.24F HILTON HEAD IS SUNNY 75 61 60 N10 N/A WALTERBORO SUNNY 77 55 47 NW6 30.26F ALLENDALE N/A 77 46 33 E6 N/A ...SOUTHERN MIDLANDS AND PEE DEE... CITY SKY/WX TMP DP RH WIND PRES REMARKS GEORGETOWN FAIR 75 54 46 SW3 30.26F KINGSTREE FAIR 75 45 33 CALM 30.26F ORANGEBURG SUNNY 77 44 30 NE6 30.27F BARNWELL N/A 79 48 34 VRB6 30.27F AIKEN FAIR 75 43 31 NE7 30.30F MANNING FOG N/A N/A N/A MISG 30.26F VSB<1/4 COLUMBIA SUNNY 76 49 38 CALM 30.26F SUMTER SUNNY 76 46 34 CALM 30.24F FLORENCE SUNNY 75 45 34 CALM 30.26F MYRTLE BEACH SUNNY 76 49 38 VRB3 30.25F N MYRTLE BEACH SUNNY 78 50 37 NE6 30.24F $$ GAZ063-065-086>088-099>101-113>116-118-119-134>141-150-201800- ...SOUTHEAST GEORGIA... CITY SKY/WX TMP DP RH WIND PRES REMARKS SAVANNAH ARPT SUNNY 79 60 52 E7 30.25F HUNTER AAF SUNNY 78 61 54 NE7 30.21F FORT STEWART SUNNY 78 60 54 NE8 30.22F STATESBORO SUNNY 77 44 31 NE3 30.26F SYLVANIA SUNNY 77 52 41 E7 30.27F CLAXTON FAIR 79 59 50 E6 30.25F ...CSRA...CENTRAL AND FAR SOUTHEAST GEORGIA... CITY SKY/WX TMP DP RH WIND PRES REMARKS THOMSON NOT AVBL AUGUSTA-BUSH SUNNY 77 49 37 NE6 30.26F AUGUSTA-DANIEL SUNNY 77 44 30 VRB3 30.28F SWAINSBORO FAIR 77 50 38 E3 30.26F VIDALIA SUNNY 79 52 38 E8 30.25F EASTMAN FAIR 79 29 15 E7 30.27F HAZLEHURST FAIR 78 39 24 NE6 30.23F ALMA SUNNY 80 61 52 VRB6 30.22F WAYCROSS SUNNY 80 58 47 E6 30.22F JESUP NOT AVBL BAXLEY FAIR 75 59 57 E6 30.23F BRUNSWICK SUNNY 77 61 57 NE9 30.23F SAINT SIMONS SUNNY 78 66 66 N14 30.22F $$ SCZ027-028-034-036>038-045-046-048>050-GAZ119-141-201800- ...LAKE AND SUPPLEMENTAL COASTAL OBSERVATIONS... STATION/POSITION TIME TEMP WIND PRES WAVE SWELL AIR SEA DIR/SP/G HT/PER HT/PER/DIR (UTC) (F) (DEG/KT/KT) (MB) (FT/S) (FT/S/D) WINYAH BAY NOT AVBL LAKE MURRAY 1620 71 180/ 4/ 5 1024.7F ACE BASIN NERRS NOT AVBL FORT PULASKI NOT AVBL SAPELO ISLAND NOT AVBL $$ ANZ835-935-AMZ111-154-330-350-352-354-370-450-454-472-201800- ...C-MAN AND BUOY OBSERVATIONS... STATION/POSITION TIME TEMP WIND PRES WAVE SWELL AIR SEA DIR/SP/G HT/PER HT/PER/DIR (UTC) (F) (DEG/KT/KT) (MB) (FT/S) (FT/S/D) BUOY 41004 1650 74 79 30/ 10/ 12 1023.7F 4/ 8 3/110/ 8 BUOY 41008 1650 74 77 50/ 17/ 21 1022.7F 4/ 5 2/120/10 FOLLY BEACH CMAN 1700 73 70/ 7/ 8 1024.9F CAPERS NEARSHORE NOT AVBL FRIPP NEARSHORE NOT AVBL STATION/POSITION TIME TEMP WIND PRES WAVE SWELL AIR SEA DIR/SP/G HT/PER HT/PER/DIR (UTC) (F) (DEG/KT/KT) (MB) (FT/S) (FT/S/D) 5E ST. MARYS GA NOT AVBL FRYING PAN BUOY 1650 73 76 10/ 8/ 10 1023.7F 4/ 8 3/120/ 8 BUOY 41025 1650 72 81 340/ 6/ 8 1023.3F 3/ 8 3/110/ 8 CAPE LOOKOUT NC 1700 73 310/ 4/ 5 1023.1F BUOY 41002 1650 77 80 30/ 14/ 16 1021.4F 5/ 8 3/ 80/ 8 BUOY 41010 NOT AVBL ST AUGUSTINE FL 1700 77 78 20/ 16/ 17 1021.9F $$

USA.gov is the U.S. government's official web portal to all federal, state and local government web resources and services.